Location: Abraham Lincoln Continuation High School
(33.9711°N, 117.3662°W)
Time: 00:38:00
(UTC+00:00)

Iridium 4 Rocket - Pass Details

Date: 20 January 2021
Orbit: 583 x 906 km, 86.9° (Epoch: 03 March)

Event Time Altitude Azimuth Distance (km) Brightness Sun altitude
Rises 02:04:52 0° 14° (NNE) 3,456 6.6 -11.9°
Reaches altitude 10° 02:07:53 10° 28° (NNE) 2,471 5.7 -12.5°
Maximum altitude 02:12:13 23° 79° (E) 1,664 4.6 -13.4°
Drops below altitude 10° 02:16:16 10° 131° (SE) 2,303 5.7 -14.2°
Sets 02:18:58 0° 146° (SE) 3,164 6.5 -14.8°
